Bangkok (Don Mueang), Thailand

3:55 AM ICT on August 30, 2016 (GMT +0700)
Bangkok International

Weather History for VTBD - April, 2013

Change the Weather History Date:

Wednesday, April 24, 2013

  Actual Average Record
Temperature  
Mean Temperature 86 °F -  
Max Temperature 93 °F 92 °F 102 °F (1997)
Min Temperature 79 °F 78 °F 75 °F (2011)
Cooling Degree Days 21    
Growing Degree Days 36 (Base 50)    
Moisture  
Dew Point 75 °F    
Average Humidity 71    
Maximum Humidity 84    
Minimum Humidity 47    
Precipitation  
Precipitation 0.02 in 0.19 in - ()
Sea Level Pressure  
Sea Level Pressure 29.83 in    
Wind  
Wind Speed 4 mph ()    
Max Wind Speed 13 mph    
Max Gust Speed -    
Visibility 6.1 miles    
Events Rain , Thunderstorm    
Averages and records for this station are not official NWS values.
T = Trace of Precipitation, MM = Missing Value Source: Averaged Metar Reports

Daily Weather History Graph

Daily Weather History Graph

Search for Another Location

Airport or City:

Trip Planner

Search our weather history database for the weather conditions in past years. The results will help you decide how hot, cold, wet, or windy it might be!

Date:

Astronomy

Apr. 24, 2013 Rise Set
Actual Time 5:59 AM ICT 6:32 PM ICT
Civil Twilight 5:37 AM ICT 6:54 PM ICT
Nautical Twilight 5:11 AM ICT 7:20 PM ICT
Astronomical Twilight 4:45 AM ICT 7:46 PM ICT
Moon 5:09 PM ICT (4/24) 4:27 AM ICT (4/24)
Length of Visible Light 13h 16m
Length of Day
12h 33m
Waxing Gibbous, 96% of the Moon is Illuminated
Apr 24
Waxing Gibbous
Apr 26
Full
May 2
Last Quarter
May 10
New
May 18
First Quarter

Hourly Weather History & Observations

Time (ICT) Temp. Heat Index Dew Point Humidity Pressure Visibility Wind Dir Wind Speed Gust Speed Precip Events Conditions
12:00 AM 82.4 °F 88.2 °F 73.4 °F 74% 29.86 in 6.2 mi SE 4.6 mph - N/A   Mostly Cloudy
12:30 AM 82.4 °F 88.2 °F 73.4 °F 74% 29.86 in 6.2 mi ESE 3.5 mph - N/A   Mostly Cloudy
1:00 AM 81 °F - 74 °F 75% 29.86 in 6 mi Calm Calm - -   Scattered Clouds
1:00 AM 80.6 °F 86.2 °F 75.2 °F 84% 29.86 in 6.2 mi Calm Calm - N/A   Mostly Cloudy
1:30 AM 80.6 °F 86.2 °F 75.2 °F 84% 29.83 in 6.2 mi SSE 2.3 mph - N/A   Mostly Cloudy
2:00 AM 80.6 °F 86.2 °F 75.2 °F 84% 29.83 in 6.2 mi East 3.5 mph - N/A   Mostly Cloudy
2:30 AM 80.6 °F 86.2 °F 75.2 °F 84% 29.83 in 6.2 mi ESE 4.6 mph - N/A   Mostly Cloudy
3:00 AM 80.6 °F 86.2 °F 75.2 °F 84% 29.80 in 6.2 mi East 2.3 mph - N/A   Mostly Cloudy
3:30 AM 80.6 °F 86.2 °F 75.2 °F 84% 29.80 in 6.2 mi East 3.5 mph - N/A   Mostly Cloudy
4:00 AM 80.6 °F 86.2 °F 75.2 °F 84% 29.80 in 6.2 mi East 3.5 mph - N/A   Mostly Cloudy
4:30 AM 80.6 °F 86.2 °F 75.2 °F 84% 29.83 in 6.2 mi East 3.5 mph - N/A   Mostly Cloudy
5:00 AM 80.6 °F 86.2 °F 75.2 °F 84% 29.83 in 6.2 mi East 3.5 mph - N/A   Mostly Cloudy
5:30 AM 80.6 °F 86.2 °F 75.2 °F 84% 29.83 in 6.2 mi East 3.5 mph - N/A   Mostly Cloudy
6:00 AM 80.6 °F 86.2 °F 75.2 °F 84% 29.83 in 6.2 mi East 3.5 mph - N/A   Mostly Cloudy
6:30 AM 80.6 °F 86.2 °F 75.2 °F 84% 29.86 in 6.2 mi East 3.5 mph - N/A   Mostly Cloudy
7:00 AM 80 °F - 76 °F 83% 29.87 in 6 mi East 4.6 mph - -   Scattered Clouds
7:00 AM 80.6 °F 86.2 °F 75.2 °F 84% 29.86 in 6.2 mi East 4.6 mph - N/A   Mostly Cloudy
7:30 AM 80.6 °F 86.2 °F 75.2 °F 84% 29.86 in 6.2 mi East 4.6 mph - N/A   Mostly Cloudy
8:00 AM 82.4 °F 89.5 °F 75.2 °F 79% 29.89 in 6.2 mi ESE 3.5 mph - N/A   Mostly Cloudy
8:30 AM 86.0 °F 95.1 °F 75.2 °F 70% 29.89 in 6.2 mi East 4.6 mph - N/A   Mostly Cloudy
9:00 AM 87.8 °F 97.6 °F 75.2 °F 66% 29.92 in 6.2 mi East 4.6 mph - N/A   Mostly Cloudy
9:30 AM 89.6 °F 99.8 °F 75.2 °F 62% 29.92 in 6.2 mi WSW 4.6 mph - N/A   Scattered Clouds
10:00 AM 91.4 °F 102.5 °F 75.2 °F 59% 29.92 in 6.2 mi East 4.6 mph - N/A   Scattered Clouds
10:30 AM 91.4 °F 102.5 °F 75.2 °F 59% 29.89 in 6.2 mi South 3.5 mph - N/A   Mostly Cloudy
11:00 AM 91.4 °F 102.5 °F 75.2 °F 59% 29.89 in 6.2 mi West 9.2 mph - N/A   Mostly Cloudy
11:30 AM 93.2 °F 105.0 °F 75.2 °F 56% 29.89 in 6.2 mi South 6.9 mph - N/A   Mostly Cloudy
12:00 PM 93.2 °F 105.0 °F 75.2 °F 56% 29.86 in 6.2 mi Calm Calm - N/A   Mostly Cloudy
12:30 PM 93.2 °F 105.0 °F 75.2 °F 56% 29.86 in 6.2 mi South 6.9 mph - N/A   Mostly Cloudy
1:00 PM 93 °F - 75 °F 47% 29.84 in 6 mi WSW 4.6 mph - - Thunderstorm Thunderstorm
1:00 PM 93.2 °F 105.0 °F 75.2 °F 56% 29.83 in 6.2 mi WSW 4.6 mph - N/A Thunderstorm Mostly Cloudy
1:30 PM 87.8 °F 97.6 °F 75.2 °F 66% 29.83 in 6.2 mi West 12.7 mph - N/A Thunderstorm Mostly Cloudy
2:00 PM 86.0 °F 91.8 °F 71.6 °F 62% 29.80 in 5.0 mi West 12.7 mph - N/A Rain , Thunderstorm Light Thunderstorms and Rain
2:30 PM 82.4 °F 90.9 °F 77.0 °F 84% 29.80 in 5.0 mi WSW 2.3 mph - N/A Rain Light Rain
3:00 PM 84.2 °F 92.3 °F 75.2 °F 74% 29.77 in 6.2 mi Calm Calm - N/A   Mostly Cloudy
3:30 PM 84.2 °F 92.3 °F 75.2 °F 74% 29.74 in 6.2 mi East 3.5 mph - N/A   Mostly Cloudy
4:00 PM 87.8 °F 97.6 °F 75.2 °F 66% 29.74 in 6.2 mi SSW 2.3 mph - N/A   Mostly Cloudy
4:30 PM 87.8 °F 97.6 °F 75.2 °F 66% 29.74 in 6.2 mi SSE 5.8 mph - N/A   Mostly Cloudy
5:00 PM 89.6 °F 99.8 °F 75.2 °F 62% 29.74 in 6.2 mi ESE 5.8 mph - N/A   Mostly Cloudy
5:30 PM 91.4 °F 102.5 °F 75.2 °F 59% 29.74 in 6.2 mi East 4.6 mph - N/A   Mostly Cloudy
6:00 PM 89.6 °F 99.8 °F 75.2 °F 62% 29.74 in 6.2 mi South 8.1 mph - N/A   Mostly Cloudy
6:30 PM 89.6 °F 99.8 °F 75.2 °F 62% 29.74 in 6.2 mi SW 6.9 mph - N/A   Mostly Cloudy
7:00 PM 89 °F - 77 °F 59% 29.78 in 6 mi WSW 5.8 mph - -   Partly Cloudy
7:00 PM 89.6 °F 102.2 °F 77.0 °F 66% 29.77 in 6.2 mi WSW 5.8 mph - N/A   Mostly Cloudy
7:30 PM 87.8 °F 99.7 °F 77.0 °F 70% 29.80 in 6.2 mi SW 4.6 mph - N/A   Mostly Cloudy
8:00 PM 87.8 °F 99.7 °F 77.0 °F 70% 29.80 in 6.2 mi WSW 6.9 mph - N/A   Mostly Cloudy
8:30 PM 87.8 °F 95.6 °F 73.4 °F 62% 29.80 in 6.2 mi South 4.6 mph - N/A   Mostly Cloudy
9:00 PM 87.8 °F 95.6 °F 73.4 °F 62% 29.83 in 6.2 mi South 4.6 mph - N/A   Mostly Cloudy
9:30 PM 86.0 °F 93.4 °F 73.4 °F 66% 29.86 in 6.2 mi South 3.5 mph - N/A   Mostly Cloudy
10:00 PM 86.0 °F 93.4 °F 73.4 °F 66% 29.86 in 6.2 mi SSE 3.5 mph - N/A   Mostly Cloudy
10:30 PM 86.0 °F 95.1 °F 75.2 °F 70% 29.86 in 6.2 mi Calm Calm - N/A   Mostly Cloudy
11:00 PM 86.0 °F 96.9 °F 77.0 °F 74% 29.86 in 6.2 mi South 3.5 mph - N/A   Mostly Cloudy
11:30 PM 86.0 °F 96.9 °F 77.0 °F 74% 29.86 in 6.2 mi South 2.3 mph - N/A   Mostly Cloudy